Вернуться в каталог

FLOCK 4H 2

АктивенНаукаSSO
NORAD 66705·PAYLOAD·🇺🇸 United States

Запущен Nov 28, 2025 с Vandenberg Space Force Base

Loading…

Ближайшие Пролёты (ближайшие 24 часа)

TLE

СвежийSource: CelesTrak SupGP

Эпоха: Sep 14, 2026, 12:45 UTC

1 66705C 25276AR  26257.53136574  .00007549  00000+0  33330-3 0  2578
2 66705  97.4099 329.8996 0002181  62.5691 211.9539 15.21813988    18

Отслеживайте FLOCK 4H 2 в реальном времени с AllMySat

Download on the App Store